Location: Elstree
(51.6403°N, 0.2969°W)
Time: 06:33:08
(UTC+00:00)

SJ 16-02 - Pass Details

Date: 24 June 2021
Orbit: 606 x 616 km, 75.0° (Epoch: 26 July)

Event Time Altitude Azimuth Distance (km) Brightness Sun altitude
Rises 22:28:35 0° 338° (NNW) 2,878 7.0 -12.1°
Reaches altitude 10° 22:30:51 10° 342° (NNW) 1,969 5.5 -12.2°
Maximum altitude 22:35:13 62° 64° (ENE) 686 1.6 -12.5°
Enters shadow 22:38:22 18° 142° (SE) 1,499 2.7 -12.7°
